EZY27A LPPR-LPMA

Flight info

Callsign EZY27A
Flight time N/A
Altitude 39000
Route ASMOV DCT DIRMA DCT VABEM DCT LIDRO
Aircraft A339/H-SADE1E2E3GHIJ3J5M1P2RWXY/LB2D1

Departure

Time 2026-05-06 14:44
Airport Francisco de Sá Carneiro Airport (LPPR)

Arrival

Time N/A
Airport Cristiano Ronaldo International Airport (LPMA)
Time Latitude Longitude Altitude Speed Heading
2026-05-06 14:31 41.23926 -8.67325 239 ft 0 kts 123°
2026-05-06 14:37 41.23935 -8.67343 238 ft 4 kts 123°
2026-05-06 14:37 41.23951 -8.67375 237 ft 4 kts 123°
2026-05-06 14:38 41.23967 -8.67408 241 ft 4 kts 130°
2026-05-06 14:38 41.23991 -8.67430 240 ft 4 kts 213°
2026-05-06 14:38 41.24013 -8.67406 240 ft 1 kts 208°
2026-05-06 14:38 41.23991 -8.67420 240 ft 0 kts 206°
2026-05-06 14:39 41.23993 -8.67419 240 ft 4 kts 205°
2026-05-06 14:39 41.24020 -8.67408 239 ft 5 kts 176°
2026-05-06 14:39 41.24054 -8.67416 236 ft 5 kts 162°
2026-05-06 14:39 41.24087 -8.67435 237 ft 5 kts 166°
2026-05-06 14:40 41.24089 -8.67436 236 ft 0 kts 167°
2026-05-06 14:40 41.24086 -8.67435 237 ft 1 kts 166°
2026-05-06 14:41 41.24074 -8.67431 237 ft 4 kts 167°
2026-05-06 14:41 41.23991 -8.67427 240 ft 11 kts 202°
2026-05-06 14:41 41.23880 -8.67488 236 ft 17 kts 177°
2026-05-06 14:41 41.23704 -8.67444 235 ft 34 kts 168°
2026-05-06 14:42 41.23438 -8.67375 240 ft 25 kts 169°
2026-05-06 14:42 41.23343 -8.67402 240 ft 6 kts 231°
2026-05-06 14:42 41.23317 -8.67526 242 ft 21 kts 259°
2026-05-06 14:42 41.23300 -8.67649 246 ft 16 kts 261°
2026-05-06 14:43 41.23361 -8.67758 245 ft 17 kts 342°
2026-05-06 14:43 41.23549 -8.67794 237 ft 44 kts 357°
2026-05-06 14:43 41.23967 -8.67916 221 ft 95 kts 347°
2026-05-06 14:43 41.24935 -8.68173 359 ft 173 kts 347°
2026-05-06 14:44 41.26178 -8.68462 1300 ft 186 kts 348°
2026-05-06 14:44 41.27462 -8.68796 2475 ft 195 kts 347°
2026-05-06 14:44 41.28838 -8.69188 3501 ft 210 kts 347°
2026-05-06 14:45 41.31951 -8.70209 5006 ft 248 kts 346°
2026-05-06 14:45 41.33678 -8.70712 5671 ft 258 kts 349°
2026-05-06 14:45 41.35452 -8.71100 6437 ft 268 kts 351°
2026-05-06 14:45 41.37346 -8.71557 7090 ft 282 kts 348°
2026-05-06 14:46 41.39174 -8.72528 8052 ft 285 kts 330°
2026-05-06 14:46 41.40720 -8.74187 9109 ft 287 kts 312°
2026-05-06 14:46 41.41700 -8.76492 10150 ft 289 kts 289°
2026-05-06 14:46 41.41963 -8.79210 10721 ft 308 kts 267°
2026-05-06 14:47 41.41406 -8.82061 11063 ft 331 kts 245°
2026-05-06 14:47 41.40004 -8.84551 11653 ft 343 kts 223°
2026-05-06 14:47 41.38012 -8.86304 12492 ft 345 kts 209°
2026-05-06 14:47 41.35874 -8.87820 13274 ft 350 kts 210°
2026-05-06 14:48 41.33772 -8.89477 14040 ft 353 kts 214°
2026-05-06 14:48 41.31762 -8.91302 14801 ft 354 kts 217°
2026-05-06 14:48 41.29780 -8.93273 15514 ft 357 kts 219°
2026-05-06 14:48 41.27819 -8.95318 16234 ft 360 kts 220°
2026-05-06 14:49 41.25853 -8.97403 16945 ft 363 kts 220°
2026-05-06 14:49 41.23869 -8.99510 17665 ft 366 kts 220°
2026-05-06 14:49 41.21864 -9.01630 18349 ft 370 kts 219°
2026-05-06 14:49 41.19841 -9.03759 19027 ft 372 kts 219°
2026-05-06 14:50 41.17804 -9.05896 19691 ft 374 kts 219°
2026-05-06 14:50 41.15755 -9.08048 20354 ft 376 kts 219°
2026-05-06 14:50 41.13688 -9.10215 21016 ft 379 kts 219°
2026-05-06 14:50 41.11609 -9.12391 21675 ft 382 kts 219°
2026-05-06 14:51 41.09535 -9.14559 22306 ft 386 kts 219°
2026-05-06 14:51 41.07410 -9.16781 22957 ft 389 kts 219°
2026-05-06 14:51 41.05271 -9.19015 23613 ft 392 kts 219°
2026-05-06 14:51 41.03117 -9.21262 24173 ft 395 kts 219°
2026-05-06 14:52 41.00941 -9.23529 24769 ft 397 kts 219°
2026-05-06 14:52 40.98757 -9.25801 25332 ft 400 kts 219°
2026-05-06 14:52 40.96590 -9.28052 25884 ft 403 kts 219°
2026-05-06 14:52 40.94372 -9.30354 26415 ft 406 kts 219°
2026-05-06 14:53 40.92140 -9.32668 26979 ft 408 kts 219°
2026-05-06 14:53 40.89895 -9.34994 27530 ft 411 kts 219°
2026-05-06 14:53 40.87637 -9.37330 28080 ft 413 kts 219°
2026-05-06 14:53 40.85369 -9.39675 28602 ft 416 kts 219°
2026-05-06 14:54 40.83079 -9.42041 29114 ft 418 kts 219°
2026-05-06 14:54 40.80777 -9.44417 29618 ft 421 kts 219°
2026-05-06 14:54 40.78489 -9.46776 30097 ft 423 kts 219°
2026-05-06 14:54 40.76154 -9.49180 30537 ft 426 kts 219°
2026-05-06 14:55 40.73800 -9.51603 30947 ft 429 kts 219°
2026-05-06 14:55 40.71436 -9.54033 31365 ft 432 kts 219°
2026-05-06 14:55 40.69080 -9.56452 31776 ft 435 kts 219°
2026-05-06 14:55 40.66685 -9.58910 32174 ft 438 kts 219°
2026-05-06 14:56 40.64270 -9.61386 32547 ft 441 kts 219°
2026-05-06 14:56 40.61843 -9.63872 32889 ft 443 kts 219°
2026-05-06 14:56 40.59398 -9.66373 33175 ft 445 kts 220°
2026-05-06 14:56 40.56945 -9.68882 33436 ft 447 kts 220°
2026-05-06 14:57 40.54509 -9.71369 33669 ft 448 kts 220°
2026-05-06 14:57 40.52045 -9.73882 33958 ft 448 kts 220°
2026-05-06 14:57 40.49586 -9.76389 34209 ft 447 kts 220°
2026-05-06 14:57 40.47120 -9.78900 34432 ft 448 kts 220°
2026-05-06 14:58 40.44651 -9.81411 34651 ft 449 kts 220°
2026-05-06 14:58 40.42176 -9.83926 34856 ft 449 kts 220°
2026-05-06 14:58 40.39695 -9.86447 35082 ft 450 kts 220°
2026-05-06 14:58 40.38055 -9.88110 35209 ft 450 kts 220°
2026-05-06 14:59 40.34764 -9.91446 35511 ft 451 kts 220°
2026-05-06 14:59 40.32280 -9.93961 35745 ft 451 kts 220°
2026-05-06 14:59 40.29793 -9.96477 35951 ft 452 kts 220°
2026-05-06 14:59 40.27295 -9.99001 36170 ft 452 kts 220°
2026-05-06 15:00 40.25648 -10.00664 36313 ft 453 kts 220°
2026-05-06 15:00 40.23148 -10.03187 36534 ft 453 kts 220°
2026-05-06 15:00 40.20650 -10.05705 36753 ft 454 kts 220°
2026-05-06 15:00 40.18145 -10.08228 36961 ft 454 kts 220°
2026-05-06 15:01 40.15638 -10.10750 37178 ft 455 kts 220°
2026-05-06 15:01 40.13122 -10.13279 37384 ft 455 kts 220°
2026-05-06 15:01 40.10605 -10.15806 37588 ft 456 kts 220°
2026-05-06 15:01 40.08090 -10.18330 37803 ft 457 kts 220°
2026-05-06 15:02 40.05594 -10.20831 37997 ft 457 kts 220°
2026-05-06 15:02 40.03068 -10.23360 38229 ft 458 kts 220°
2026-05-06 15:02 40.00537 -10.25893 38426 ft 458 kts 220°
2026-05-06 15:02 39.98000 -10.28428 38638 ft 459 kts 220°
2026-05-06 15:03 39.95465 -10.30959 38803 ft 459 kts 220°
2026-05-06 15:03 39.92931 -10.33486 38998 ft 459 kts 220°
2026-05-06 15:03 39.90390 -10.36018 39025 ft 459 kts 220°
2026-05-06 15:04 39.85325 -10.41057 39033 ft 458 kts 220°
2026-05-06 15:04 39.80257 -10.46092 39034 ft 458 kts 220°
2026-05-06 15:05 39.75178 -10.51127 39031 ft 458 kts 220°
2026-05-06 15:05 39.70132 -10.56119 39031 ft 458 kts 220°
2026-05-06 15:06 39.65051 -10.61137 39032 ft 459 kts 220°
2026-05-06 15:06 39.59961 -10.66155 39037 ft 459 kts 220°
2026-05-06 15:07 39.54878 -10.71156 39032 ft 459 kts 220°
2026-05-06 15:07 39.49787 -10.76155 39034 ft 459 kts 220°
2026-05-06 15:08 39.44720 -10.81121 39051 ft 459 kts 220°
2026-05-06 15:08 39.39614 -10.86116 39033 ft 459 kts 220°
2026-05-06 15:09 39.34515 -10.91095 39034 ft 459 kts 220°
2026-05-06 15:09 39.29446 -10.96036 39051 ft 459 kts 220°
2026-05-06 15:10 39.24343 -11.01000 39043 ft 459 kts 220°
2026-05-06 15:10 39.19236 -11.05958 39045 ft 459 kts 220°
2026-05-06 15:11 39.14119 -11.10917 39044 ft 459 kts 220°
2026-05-06 15:11 39.09004 -11.15865 39045 ft 459 kts 220°
2026-05-06 15:12 39.03891 -11.20803 39045 ft 459 kts 220°
2026-05-06 15:12 38.98777 -11.25731 39043 ft 459 kts 220°
2026-05-06 15:13 38.93684 -11.30631 39046 ft 459 kts 220°
2026-05-06 15:13 38.88563 -11.35548 39046 ft 460 kts 220°
2026-05-06 15:14 38.83437 -11.40461 39047 ft 460 kts 220°
2026-05-06 15:14 38.78309 -11.45368 39044 ft 460 kts 220°
2026-05-06 15:15 38.73175 -11.50270 39051 ft 460 kts 220°
2026-05-06 15:15 38.68033 -11.55171 39048 ft 460 kts 220°
2026-05-06 15:16 38.62918 -11.60038 39054 ft 461 kts 220°
2026-05-06 15:16 38.57767 -11.64929 39052 ft 461 kts 220°
2026-05-06 15:17 38.52613 -11.69816 39055 ft 461 kts 220°
2026-05-06 15:17 38.47456 -11.74695 39055 ft 461 kts 220°
2026-05-06 15:18 38.42286 -11.79578 39055 ft 462 kts 220°
2026-05-06 15:18 38.37142 -11.84427 39056 ft 462 kts 220°
2026-05-06 15:19 38.31967 -11.89298 39056 ft 462 kts 220°
2026-05-06 15:19 38.26786 -11.94165 39054 ft 463 kts 220°
2026-05-06 15:20 38.21595 -11.99031 39054 ft 463 kts 220°
2026-05-06 15:20 38.16399 -12.03894 39053 ft 464 kts 220°
2026-05-06 15:21 38.11232 -12.08722 39056 ft 464 kts 220°
2026-05-06 15:21 38.06016 -12.13586 39056 ft 464 kts 220°
2026-05-06 15:22 38.00808 -12.18434 39056 ft 465 kts 220°
2026-05-06 15:22 37.95591 -12.23282 39060 ft 465 kts 220°
2026-05-06 15:23 37.90370 -12.28124 39059 ft 465 kts 220°
2026-05-06 15:23 37.85139 -12.32968 39060 ft 466 kts 220°
2026-05-06 15:24 37.79912 -12.37799 39064 ft 466 kts 220°
2026-05-06 15:24 37.74656 -12.42648 39062 ft 467 kts 220°
2026-05-06 15:25 37.69423 -12.47467 39063 ft 467 kts 220°
2026-05-06 15:25 37.64162 -12.52303 39064 ft 468 kts 220°
2026-05-06 15:26 37.58896 -12.57135 39063 ft 468 kts 220°
2026-05-06 15:26 37.53628 -12.61960 39064 ft 468 kts 220°
2026-05-06 15:27 37.48345 -12.66790 39062 ft 469 kts 220°
2026-05-06 15:27 37.43097 -12.71580 39062 ft 469 kts 220°
2026-05-06 15:28 37.37790 -12.76415 39062 ft 470 kts 220°
2026-05-06 15:28 37.32491 -12.81233 39065 ft 471 kts 220°
2026-05-06 15:29 37.27175 -12.86060 39079 ft 471 kts 220°
2026-05-06 15:29 37.21856 -12.90880 39069 ft 472 kts 220°
2026-05-06 15:30 37.16531 -12.95696 39063 ft 472 kts 220°
2026-05-06 15:30 37.11226 -13.00487 39068 ft 473 kts 220°
2026-05-06 15:31 37.05880 -13.05306 39063 ft 473 kts 220°
2026-05-06 15:31 37.00527 -13.10123 39066 ft 474 kts 220°
2026-05-06 15:32 36.92487 -13.17341 39062 ft 475 kts 220°
2026-05-06 15:32 36.87112 -13.22156 39066 ft 475 kts 220°
2026-05-06 15:33 36.81733 -13.26967 39066 ft 476 kts 220°
2026-05-06 15:33 36.76383 -13.31743 39067 ft 476 kts 220°
2026-05-06 15:34 36.70988 -13.36550 39071 ft 477 kts 220°
2026-05-06 15:34 36.65579 -13.41362 39070 ft 477 kts 220°
2026-05-06 15:35 36.60192 -13.46145 39070 ft 478 kts 220°
2026-05-06 15:35 36.54770 -13.50951 39070 ft 478 kts 220°
2026-05-06 15:36 36.49348 -13.55749 39078 ft 478 kts 220°
2026-05-06 15:36 36.43917 -13.60546 39071 ft 479 kts 220°
2026-05-06 15:37 36.38485 -13.65336 39067 ft 479 kts 221°
2026-05-06 15:37 36.33072 -13.70101 39082 ft 480 kts 221°
2026-05-06 15:38 36.27622 -13.74889 39077 ft 480 kts 221°
2026-05-06 15:38 36.22163 -13.79677 39078 ft 481 kts 221°
2026-05-06 15:39 36.16727 -13.84438 39072 ft 481 kts 221°
2026-05-06 15:39 36.11253 -13.89223 39079 ft 481 kts 221°
2026-05-06 15:40 36.05776 -13.94002 39078 ft 482 kts 221°
2026-05-06 15:40 36.00292 -13.98779 39073 ft 482 kts 221°
2026-05-06 15:41 35.94790 -14.03563 39076 ft 483 kts 221°
2026-05-06 15:41 35.89318 -14.08313 39078 ft 484 kts 221°
2026-05-06 15:42 35.83798 -14.13097 39079 ft 484 kts 221°
2026-05-06 15:42 35.78269 -14.17880 39081 ft 485 kts 221°
2026-05-06 15:43 35.72738 -14.22655 39082 ft 485 kts 221°
2026-05-06 15:43 35.67200 -14.27429 39084 ft 486 kts 221°
2026-05-06 15:44 35.61685 -14.32175 39085 ft 486 kts 221°
2026-05-06 15:44 35.56128 -14.36949 39083 ft 487 kts 221°
2026-05-06 15:45 35.50576 -14.41710 39090 ft 487 kts 221°
2026-05-06 15:45 35.45010 -14.46475 39088 ft 488 kts 221°
2026-05-06 15:46 35.39443 -14.51233 39085 ft 488 kts 221°
2026-05-06 15:46 35.33904 -14.55959 39087 ft 488 kts 221°
2026-05-06 15:47 35.28322 -14.60714 39089 ft 489 kts 221°
2026-05-06 15:47 35.23680 -14.64662 39093 ft 489 kts 221°
2026-05-06 15:48 35.18091 -14.69408 39098 ft 489 kts 221°
2026-05-06 15:48 35.12501 -14.74146 39092 ft 489 kts 221°
2026-05-06 15:49 35.06904 -14.78882 39091 ft 489 kts 221°
2026-05-06 15:49 35.01299 -14.83617 39082 ft 490 kts 221°
2026-05-06 15:50 34.95696 -14.88342 39097 ft 490 kts 221°
2026-05-06 15:50 34.90085 -14.93065 39094 ft 490 kts 221°
2026-05-06 15:51 34.84497 -14.97762 39091 ft 490 kts 221°
2026-05-06 15:51 34.78880 -15.02476 39097 ft 490 kts 221°
2026-05-06 15:52 34.73254 -15.07189 39093 ft 491 kts 221°
2026-05-06 15:52 34.67619 -15.11902 39097 ft 491 kts 221°
2026-05-06 15:53 34.62019 -15.16578 39100 ft 491 kts 221°
2026-05-06 15:53 34.56380 -15.21278 39097 ft 491 kts 221°
2026-05-06 15:54 34.50742 -15.25969 39098 ft 491 kts 221°
2026-05-06 15:54 34.45098 -15.30656 39099 ft 492 kts 221°
2026-05-06 15:55 34.39446 -15.35342 39100 ft 492 kts 221°
2026-05-06 15:55 34.33799 -15.40017 39097 ft 492 kts 221°
2026-05-06 15:56 34.28181 -15.44660 39098 ft 492 kts 221°
2026-05-06 15:56 34.22522 -15.49330 39101 ft 492 kts 221°
2026-05-06 15:57 34.16861 -15.53994 39100 ft 492 kts 221°
2026-05-06 15:57 34.11186 -15.58661 39101 ft 492 kts 221°
2026-05-06 15:58 34.05517 -15.63315 39099 ft 493 kts 221°
2026-05-06 15:58 33.99848 -15.67964 39094 ft 493 kts 221°
2026-05-06 15:59 33.94176 -15.72609 39100 ft 493 kts 221°
2026-05-06 15:59 33.88538 -15.77220 39098 ft 493 kts 220°
2026-05-06 16:00 33.83673 -15.82723 39097 ft 472 kts 242°
2026-05-06 16:00 33.82052 -15.86100 39093 ft 460 kts 253°
2026-05-06 16:00 33.81060 -15.89708 39094 ft 448 kts 265°
2026-05-06 16:01 33.80724 -15.93379 39102 ft 436 kts 277°
2026-05-06 16:01 33.81005 -15.96976 39100 ft 429 kts 284°
2026-05-06 16:01 33.81097 -16.00595 39106 ft 439 kts 272°
2026-05-06 16:01 33.80565 -16.04198 39103 ft 450 kts 261°
2026-05-06 16:02 33.79394 -16.07747 39097 ft 462 kts 250°
2026-05-06 16:02 33.77621 -16.11020 39105 ft 474 kts 238°
2026-05-06 16:02 33.75871 -16.13281 39095 ft 483 kts 230°